period_start,C,m1,H,J0,J1,J2,J3,J4,J5,JA,JB,JC,JD,JJ,JK,JN,#
2016-01-25 00:03:10,0.34,12.07,0.00,15.32,19.64,23.62,14.86,50.59,998.55,2060.00,1154.91,1295.33,1462.41,600.51,601.39,49.30,0000 0000 0000 0000 000000
2016-01-25 00:08:12,0.29,12.08,0.00,15.34,19.64,23.65,14.79,50.72,998.55,2060.00,1153.54,1294.17,1461.17,599.77,600.74,49.35,0000 0000 0000 0000 000000
2016-01-25 00:13:13,0.33,12.10,0.00,15.35,19.66,23.60,14.80,50.71,998.55,2060.00,1151.96,1293.04,1459.79,600.29,601.21,49.40,0000 0000 0000 0000 000000
2016-01-25 00:18:15,0.34,12.12,0.00,15.38,19.67,23.65,14.82,50.64,998.57,2060.00,1150.40,1291.88,1458.47,600.07,601.01,49.45,0000 0000 0000 0000 000000
2016-01-25 00:23:16,0.37,12.14,0.00,15.41,19.67,23.65,14.85,50.67,998.66,2060.00,1148.71,1290.67,1457.04,600.07,600.86,49.50,0000 0000 0000 0000 000000
2016-01-25 00:28:17,0.34,12.16,0.00,15.43,19.69,23.67,14.74,50.62,998.83,2060.00,1147.12,1289.48,1455.69,599.95,600.94,49.55,0000 0000 0000 0000 000000
2016-01-25 00:33:18,0.34,12.17,0.00,15.47,19.70,23.72,14.73,50.71,998.83,2060.00,1145.52,1288.39,1454.35,599.98,600.92,49.60,0000 0000 0000 0000 000000
2016-01-25 00:38:20,0.33,12.19,0.00,15.47,19.72,23.71,14.75,50.67,999.02,2059.99,1143.90,1287.20,1452.94,599.85,600.90,49.65,0000 0000 0000 0000 000000
2016-01-25 00:43:21,0.36,12.21,0.00,15.49,19.74,23.75,14.76,50.69,999.04,2059.99,1142.23,1285.93,1451.54,599.88,600.84,49.71,0000 0000 0000 0000 000000
2016-01-25 00:48:23,0.24,12.23,0.00,15.49,19.75,23.78,14.89,50.81,999.04,2059.96,1141.06,1284.94,1450.33,600.33,601.33,49.76,0000 0000 0000 0000 000000
2016-01-25 00:53:24,0.23,12.24,0.00,15.52,19.77,23.72,14.87,50.81,999.05,2059.91,1140.16,1283.97,1449.30,600.12,601.01,49.81,0000 0000 0000 0000 000000
2016-01-25 00:58:25,0.23,12.25,0.00,15.51,19.78,23.78,14.75,50.63,999.04,2059.81,1139.09,1283.02,1448.13,600.02,600.92,49.86,0000 0000 0000 0000 000000
2016-01-25 01:03:27,0.23,12.26,0.00,15.53,19.79,23.82,14.81,50.76,999.11,2059.50,1137.94,1282.05,1447.00,599.92,600.85,49.91,0000 0000 0000 0000 000000
2016-01-25 01:08:29,0.28,12.27,0.00,15.55,19.81,23.80,14.72,50.64,999.36,2059.14,1136.57,1280.97,1445.70,599.74,600.89,49.96,0000 0000 0000 0000 000000
2016-01-25 01:13:29,0.31,12.29,0.00,15.53,19.82,23.81,14.83,50.76,999.50,2059.04,1135.01,1279.85,1444.43,600.28,601.47,50.01,0000 0000 0000 0000 000000
2016-01-25 01:18:31,0.28,12.30,0.00,15.55,19.82,23.86,14.73,50.63,999.51,2059.04,1133.73,1278.90,1443.25,599.76,600.88,50.06,0000 0000 0000 0000 000000
2016-01-25 01:23:32,0.31,12.32,0.00,15.56,19.83,23.82,14.76,50.67,999.53,2059.00,1132.32,1277.86,1441.94,600.17,601.23,50.11,0000 0000 0000 0000 000000
2016-01-25 01:28:34,0.33,12.33,0.00,15.58,19.84,23.77,14.78,50.67,999.53,2059.00,1130.92,1276.77,1440.67,600.06,601.19,50.16,0000 0000 0000 0000 000000
2016-01-25 01:33:35,0.31,12.35,0.00,15.59,19.84,23.80,14.74,50.60,999.53,2059.00,1129.58,1275.72,1439.52,599.86,600.85,50.21,0000 0000 0000 0000 000000
2016-01-25 01:38:37,0.29,12.37,0.00,15.62,19.84,23.81,14.77,50.63,999.53,2059.00,1128.14,1274.69,1438.20,600.14,601.14,50.26,0000 0000 0000 0000 000000
2016-01-25 01:43:38,0.38,12.38,0.00,15.62,19.85,23.86,14.76,50.58,999.53,2059.00,1126.60,1273.54,1436.84,599.80,600.91,50.31,0000 0000 0000 0000 000000
2016-01-25 01:48:39,0.34,12.40,0.00,15.62,19.86,23.85,14.77,50.63,999.57,2058.98,1124.96,1272.38,1435.59,599.96,601.04,50.36,0000 0000 0000 0000 000000
2016-01-25 01:53:40,0.32,12.42,0.00,15.63,19.87,23.84,14.82,50.60,999.85,2058.98,1123.39,1271.36,1434.31,600.18,601.50,50.41,0000 0000 0000 0000 000000
2016-01-25 01:58:41,0.35,12.44,0.00,15.64,19.87,23.85,14.83,50.62,1000.01,2058.96,1121.70,1270.16,1432.93,600.08,601.34,50.46,0000 0000 0000 0000 000000
2016-01-25 02:03:43,0.30,12.45,0.00,15.64,19.87,23.81,14.80,50.58,1000.01,2058.96,1120.18,1269.06,1431.67,600.27,601.58,50.51,0000 0000 0000 0000 000000
2016-01-25 02:08:44,0.35,12.47,0.00,15.63,19.87,23.82,14.78,50.73,1000.06,2058.98,1118.63,1268.00,1430.43,600.14,601.48,50.57,0000 0000 0000 0000 000000
2016-01-25 02:13:45,0.36,12.49,0.00,15.64,19.87,23.87,14.79,50.63,1000.12,2058.97,1117.06,1266.85,1429.11,599.88,601.17,50.62,0000 0000 0000 0000 000000
2016-01-25 02:18:47,0.36,12.51,0.00,15.64,19.87,23.87,14.78,50.66,1000.23,2058.97,1115.39,1265.71,1427.75,599.88,601.24,50.67,0000 0000 0000 0000 000000
2016-01-25 02:23:48,0.33,12.52,0.00,15.67,19.89,23.88,14.74,50.52,1000.41,2058.96,1113.90,1264.67,1426.55,599.74,601.25,50.72,0000 0000 0000 0000 000000
2016-01-25 02:28:50,0.32,12.54,0.00,15.65,19.89,23.87,14.81,50.77,1000.49,2058.96,1112.42,1263.61,1425.31,600.00,601.47,50.77,0000 0000 0000 0000 000000
2016-01-25 02:33:51,0.31,12.56,0.00,15.68,19.89,23.84,14.86,50.60,1000.50,2058.96,1110.94,1262.50,1423.99,600.52,601.98,50.82,0000 0000 0000 0000 000000
2016-01-25 02:38:53,0.35,12.57,0.00,15.69,19.89,23.83,14.80,50.61,1000.51,2058.97,1109.51,1261.44,1422.74,600.27,601.56,50.87,0000 0000 0000 0000 000000
2016-01-25 02:43:54,0.36,12.59,0.00,15.68,19.90,23.87,14.75,50.68,1000.66,2058.95,1107.81,1260.32,1421.49,600.04,601.43,50.92,0000 0000 0000 0000 000000
2016-01-25 02:48:56,0.31,12.61,0.00,15.70,19.92,23.88,14.79,50.73,1000.83,2058.95,1106.28,1259.16,1420.13,599.70,601.35,50.97,0000 0000 0000 0000 000000
2016-01-25 02:53:57,0.37,12.63,0.00,15.71,19.92,23.91,14.77,50.71,1000.98,2058.90,1104.65,1257.97,1418.75,599.87,601.52,51.02,0000 0000 0000 0000 000000
2016-01-25 02:58:58,0.39,12.65,0.00,15.73,19.93,23.85,14.82,50.79,1000.99,2058.90,1103.01,1256.80,1417.46,600.16,601.73,51.07,0000 0000 0000 0000 000000
2016-01-25 03:03:59,0.32,12.66,0.00,15.75,19.94,23.93,14.78,50.80,1000.99,2058.94,1101.52,1255.78,1416.24,600.08,601.58,51.12,0000 0000 0000 0000 000000
2016-01-25 03:09:01,0.28,12.68,0.00,15.73,19.95,23.94,14.79,50.72,1001.02,2058.92,1100.24,1254.75,1415.04,599.93,601.64,51.17,0000 0000 0000 0000 000000
2016-01-25 03:14:02,0.32,12.69,0.00,15.72,19.97,23.99,14.81,50.79,1001.06,2058.88,1098.84,1253.73,1413.84,600.13,601.77,51.22,0000 0000 0000 0000 000000
2016-01-25 03:19:03,0.33,12.71,0.00,15.73,19.97,23.99,14.79,50.78,1001.35,2058.81,1097.39,1252.69,1412.61,600.00,601.77,51.27,0000 0000 0000 0000 000000
2016-01-25 03:24:05,0.25,12.72,0.00,15.73,19.99,23.98,14.78,50.64,1001.48,2058.34,1095.85,1251.63,1411.42,600.17,602.06,51.32,0000 0000 0000 0000 000000
2016-01-25 03:29:06,0.37,12.74,0.00,15.74,19.99,24.00,14.75,50.74,1001.48,2058.49,1094.31,1250.60,1410.21,600.07,602.06,51.37,0000 0000 0000 0000 000000
2016-01-25 03:34:08,0.29,12.76,0.00,15.80,20.00,24.02,14.70,50.78,1001.48,2058.33,1092.75,1249.53,1408.97,599.84,601.60,51.43,0000 0000 0000 0000 000000
2016-01-25 03:39:09,0.27,12.77,0.00,15.81,20.01,23.99,14.76,50.74,1001.50,2058.16,1091.49,1248.61,1407.89,600.07,601.83,51.48,0000 0000 0000 0000 000000
2016-01-25 03:44:11,0.25,12.79,0.00,15.81,20.02,24.00,14.83,50.71,1001.73,2058.08,1090.27,1247.69,1406.81,600.22,602.10,51.53,0000 0000 0000 0000 000000
2016-01-25 03:49:12,0.32,12.80,0.00,15.81,20.02,24.03,14.79,50.69,1001.84,2058.02,1088.96,1246.62,1405.71,600.14,602.19,51.58,0000 0000 0000 0000 000000
2016-01-25 03:54:14,0.33,12.82,0.00,15.80,20.04,24.02,14.84,50.66,1001.92,2058.01,1087.57,1245.64,1404.55,600.16,602.17,51.63,0000 0000 0000 0000 000000
2016-01-25 03:59:16,0.26,12.83,0.00,15.81,20.04,23.96,14.80,50.53,1001.97,2058.01,1086.52,1244.68,1403.44,600.30,602.42,51.68,0000 0000 0000 0000 000000
2016-01-25 04:04:17,0.30,12.85,0.00,15.82,20.04,24.06,14.76,50.52,1001.97,2058.01,1085.10,1243.69,1402.27,600.09,602.18,51.73,0000 0000 0000 0000 000000
2016-01-25 04:09:18,0.34,12.86,0.00,15.82,20.04,24.00,14.87,50.62,1001.98,2058.01,1083.66,1242.67,1401.07,600.58,602.62,51.78,0000 0000 0000 0000 000000
2016-01-25 04:14:20,0.30,12.88,0.00,15.84,20.05,24.03,14.83,50.64,1001.99,2058.00,1082.28,1241.63,1399.91,600.51,602.51,51.83,0000 0000 0000 0000 000000
2016-01-25 04:19:21,0.35,12.90,0.00,15.83,20.05,24.05,14.76,50.67,1002.14,2058.00,1080.80,1240.59,1398.68,599.74,601.96,51.88,0000 0000 0000 0000 000000
2016-01-25 04:24:22,0.30,12.91,0.00,15.85,20.06,24.00,14.76,50.66,1002.41,2058.00,1079.48,1239.63,1397.55,599.99,602.40,51.93,0000 0000 0000 0000 000000
2016-01-25 04:29:24,0.28,12.93,0.00,15.89,20.07,24.03,14.77,50.66,1002.44,2058.00,1078.16,1238.67,1396.43,599.87,601.96,51.98,0000 0000 0000 0000 000000
2016-01-25 04:34:25,0.31,12.94,0.00,15.89,20.07,24.05,14.77,50.67,1002.43,2058.00,1076.84,1237.67,1395.26,599.97,602.32,52.03,0000 0000 0000 0000 000000
2016-01-25 04:39:27,0.32,12.96,0.00,15.88,20.07,24.04,14.75,50.86,1002.46,2058.00,1075.51,1236.67,1394.08,599.91,602.07,52.08,0000 0000 0000 0000 000000
2016-01-25 04:44:28,0.30,12.98,0.00,15.89,20.07,24.05,14.79,50.81,1002.46,2058.00,1074.14,1235.68,1392.91,599.78,601.93,52.13,0000 0000 0000 0000 000000
2016-01-25 04:49:29,0.33,12.99,0.00,15.88,20.07,24.03,14.79,50.73,1002.54,2057.99,1072.74,1234.68,1391.80,600.39,602.51,52.18,0000 0000 0000 0000 000000
2016-01-25 04:54:30,0.32,13.01,0.00,15.87,20.07,24.02,14.77,50.68,1002.90,2057.99,1071.45,1233.68,1390.63,599.67,602.21,52.23,0000 0000 0000 0000 000000
2016-01-25 04:59:32,0.30,13.02,0.00,15.88,20.07,24.08,14.84,50.85,1002.94,2057.99,1070.09,1232.69,1389.48,600.01,602.44,52.28,0000 0000 0000 0000 000000
2016-01-25 05:04:33,0.31,13.04,0.00,15.87,20.07,24.06,14.80,50.69,1002.95,2057.99,1068.79,1231.72,1388.35,599.65,602.22,52.34,0000 0000 0000 0000 000000
2016-01-25 05:09:34,0.32,13.06,0.00,15.87,20.07,24.03,14.80,50.66,1002.98,2057.98,1067.45,1230.75,1387.18,600.26,602.82,52.39,0000 0000 0000 0000 000000
2016-01-25 05:14:36,0.30,13.07,0.00,15.87,20.07,24.03,14.76,50.69,1003.20,2057.98,1066.08,1229.76,1386.05,600.27,602.88,52.44,0000 0000 0000 0000 000000
2016-01-25 05:19:37,0.33,13.09,0.00,15.87,20.07,24.01,14.77,50.65,1003.43,2057.99,1064.75,1228.76,1384.90,599.75,602.45,52.49,0000 0000 0000 0000 000000
2016-01-25 05:24:38,0.30,13.10,0.00,15.88,20.07,24.02,14.80,50.63,1003.43,2057.99,1063.49,1227.83,1383.79,600.10,602.94,52.54,0000 0000 0000 0000 000000
2016-01-25 05:29:39,0.29,13.12,0.00,15.89,20.07,24.01,14.75,50.63,1003.44,2057.98,1062.15,1226.88,1382.64,600.07,602.98,52.59,0000 0000 0000 0000 000000
2016-01-25 05:34:41,0.32,13.14,0.00,15.90,20.06,24.03,14.79,50.67,1003.46,2057.98,1060.79,1225.92,1381.54,600.03,602.78,52.64,0000 0000 0000 0000 000000
2016-01-25 05:39:42,0.31,13.15,0.00,15.90,20.05,24.03,14.81,50.75,1003.59,2057.99,1059.49,1224.95,1380.44,600.07,602.89,52.69,0000 0000 0000 0000 000000
2016-01-25 05:44:44,0.29,13.17,0.00,15.89,20.05,24.00,14.82,50.81,1003.75,2057.98,1058.13,1223.96,1379.26,599.78,602.75,52.74,0000 0000 0000 0000 000000
2016-01-25 05:49:45,0.44,13.19,0.00,15.86,20.04,24.04,14.81,50.77,1003.91,2057.98,1056.28,1222.83,1377.89,600.20,603.37,52.79,0000 0000 0000 0000 000000
2016-01-25 05:54:46,0.38,13.21,0.00,15.88,20.04,24.05,14.81,50.74,1003.92,2057.99,1054.69,1221.77,1376.72,600.06,603.18,52.84,0000 0000 0000 0000 000000
2016-01-25 05:59:48,0.31,13.22,0.00,15.91,20.04,24.03,14.79,50.84,1003.93,2057.99,1053.31,1220.79,1375.63,600.20,603.21,52.89,0000 0000 0000 0000 000000
2016-01-25 06:04:49,0.30,13.24,0.00,15.97,20.04,24.04,14.83,50.83,1004.00,2057.99,1051.92,1219.87,1374.47,599.71,602.59,52.94,0000 0000 0000 0000 000000
2016-01-25 06:09:50,0.26,13.26,0.00,16.44,20.07,24.01,14.78,50.70,1004.14,2057.99,1050.83,1218.98,1373.46,599.96,602.06,52.99,0000 0000 0000 0000 000000
2016-01-25 06:14:51,0.29,13.27,0.00,16.67,20.11,24.27,14.74,50.76,1004.33,2057.99,1049.75,1218.09,1372.52,599.75,601.46,53.04,0000 0000 0000 0000 000000
2016-01-25 06:19:53,0.32,13.29,0.00,16.41,20.13,24.38,14.80,50.97,1004.41,2057.98,1048.43,1217.11,1371.34,599.99,602.26,53.09,0000 0000 0000 0000 000000
2016-01-25 06:24:54,0.29,13.30,0.00,16.37,20.14,24.42,14.79,50.83,1004.41,2057.96,1047.03,1216.12,1370.16,600.00,602.37,53.14,0000 0000 0000 0000 000000
2016-01-25 06:29:56,0.31,13.32,0.00,16.34,20.17,24.43,14.82,50.87,1004.56,2057.81,1045.80,1215.25,1369.05,600.44,602.93,53.20,0000 0000 0000 0000 000000
2016-01-25 06:34:57,0.31,13.33,0.00,16.32,20.18,24.41,14.79,50.75,1004.85,2057.48,1044.26,1214.35,1367.83,599.90,602.65,53.25,0000 0000 0000 0000 000000
2016-01-25 06:39:58,0.30,13.35,0.00,16.29,20.20,24.36,14.75,50.59,1004.89,2057.14,1042.75,1213.29,1366.64,600.01,602.75,53.30,0000 0000 0000 0000 000000
2016-01-25 06:44:59,0.31,13.36,0.00,16.26,20.22,24.31,14.82,50.73,1004.90,2057.03,1041.34,1212.22,1365.40,600.04,602.89,53.35,0000 0000 0000 0000 000000
2016-01-25 06:50:00,0.31,13.38,0.00,16.26,20.24,24.32,14.74,50.67,1005.00,2057.01,1040.02,1211.19,1364.23,599.91,602.85,53.40,0000 0000 0000 0000 000000
2016-01-25 06:55:01,0.40,13.40,0.00,16.25,20.27,24.25,14.75,50.67,1005.28,2057.01,1038.19,1210.03,1362.87,600.05,603.19,53.45,0000 0000 0000 0000 000000
2016-01-25 07:00:03,0.26,13.42,0.00,16.23,20.29,24.29,14.76,50.81,1005.36,2057.00,1037.05,1209.05,1361.85,599.78,603.10,53.50,0000 0000 0000 0000 000000
2016-01-25 07:05:04,0.30,13.43,0.00,16.24,20.31,24.28,14.76,50.69,1005.39,2057.00,1036.22,1208.20,1360.78,599.81,602.99,53.55,0000 0000 0000 0000 000000
2016-01-25 07:10:05,0.36,13.45,0.00,16.27,20.33,24.25,14.86,50.63,1005.39,2056.99,1034.74,1207.19,1359.56,600.28,603.45,53.60,0000 0000 0000 0000 000000
2016-01-25 07:15:07,0.32,13.46,0.00,16.27,20.34,24.30,14.79,50.63,1005.41,2056.98,1033.48,1206.12,1358.40,600.05,603.16,53.65,0000 0000 0000 0000 000000
2016-01-25 07:20:08,0.41,13.48,0.00,16.28,20.37,24.35,14.86,50.73,1005.49,2056.96,1031.58,1204.97,1357.02,599.97,603.29,53.70,0000 0000 0000 0000 000000
2016-01-25 07:25:10,0.36,13.50,0.00,16.30,20.37,24.35,14.85,50.73,1005.74,2056.95,1029.87,1203.94,1355.84,600.38,603.80,53.75,0000 0000 0000 0000 000000
2016-01-25 07:30:11,0.32,13.52,0.00,16.29,20.39,24.36,14.77,50.66,1005.87,2056.89,1028.64,1202.96,1354.73,599.98,603.45,53.80,0000 0000 0000 0000 000000
2016-01-25 07:35:12,0.28,13.53,0.00,16.31,20.41,24.40,14.79,50.77,1005.87,2056.66,1027.34,1201.97,1353.59,599.92,603.24,53.85,0000 0000 0000 0000 000000
2016-01-25 07:40:13,0.32,13.55,0.00,16.30,20.42,24.43,14.82,50.70,1006.01,2056.36,1025.88,1200.95,1352.41,599.96,603.48,53.90,0000 0000 0000 0000 000000
2016-01-25 07:45:15,0.29,13.56,0.00,16.33,20.44,24.39,14.81,50.61,1006.30,2056.12,1024.56,1199.91,1351.18,600.07,603.58,53.95,0000 0000 0000 0000 000000
2016-01-25 07:50:16,0.92,13.59,0.00,16.36,20.47,24.41,14.88,50.77,1006.36,2056.05,1021.50,1197.80,1348.78,600.24,603.89,54.00,0000 0000 0000 0000 000000
2016-01-25 07:55:18,0.68,13.64,0.00,16.38,20.48,24.46,14.85,50.83,1006.37,2056.01,1018.10,1195.58,1346.28,599.91,603.43,54.05,0000 0000 0000 0000 000000
2016-01-25 08:00:19,0.33,13.66,0.00,16.34,20.49,24.50,14.85,50.80,1006.42,2056.00,1016.47,1194.45,1345.06,599.90,603.50,54.10,0000 0000 0000 0000 000000
2016-01-25 08:05:20,0.18,13.67,0.00,16.31,20.49,24.47,14.86,50.70,1006.70,2056.00,1015.60,1193.93,1344.23,600.27,604.17,54.16,0000 0000 0000 0000 000000
2016-01-25 08:10:22,0.19,13.68,0.00,16.32,20.51,24.50,14.85,50.68,1006.85,2055.99,1014.78,1193.12,1343.74,599.96,603.98,54.21,0000 0000 0000 0000 000000
2016-01-25 08:15:23,0.11,13.69,0.00,16.33,20.52,24.50,14.79,50.75,1006.86,2055.98,1014.03,1192.96,1343.04,600.04,603.94,54.26,0000 0000 0000 0000 000000
2016-01-25 08:20:24,0.22,13.70,0.00,16.38,20.52,24.50,14.82,50.73,1007.10,2055.98,1013.33,1192.20,1342.87,600.25,604.11,54.31,0000 0000 0000 0000 000000
2016-01-25 08:25:26,0.08,13.71,0.00,16.38,20.53,24.50,14.85,50.63,1007.32,2055.97,1012.88,1191.98,1342.08,599.80,604.01,54.36,0000 0000 0000 0000 000000
2016-01-25 08:30:27,0.21,13.72,0.00,16.35,20.54,24.50,14.85,50.66,1007.34,2055.96,1012.08,1191.38,1341.79,600.23,604.32,54.41,0000 0000 0000 0000 000000
2016-01-25 08:35:28,0.14,13.73,0.00,16.32,20.54,24.52,14.78,50.62,1007.34,2055.94,1011.50,1191.00,1341.04,600.22,604.44,54.46,0000 0000 0000 0000 000000
2016-01-25 08:40:29,0.15,13.73,0.00,16.32,20.55,24.48,14.79,50.63,1007.48,2055.93,1010.91,1190.49,1340.74,599.79,603.95,54.51,0000 0000 0000 0000 000000
2016-01-25 08:45:30,0.12,13.74,0.00,16.33,20.56,24.51,14.88,50.72,1007.77,2055.77,1010.08,1190.00,1340.02,599.93,604.41,54.56,0000 0000 0000 0000 000000
2016-01-25 08:50:32,0.19,13.75,0.00,16.33,20.57,24.51,14.86,50.72,1007.83,2055.62,1009.33,1189.64,1339.57,599.94,604.43,54.61,0000 0000 0000 0000 000000
2016-01-25 08:55:33,0.08,13.76,0.00,16.29,20.57,24.52,14.81,50.66,1007.85,2055.58,1008.97,1189.03,1339.01,599.85,604.70,54.66,0000 0000 0000 0000 000000
2016-01-25 09:00:34,0.18,13.76,0.00,16.33,20.57,24.54,14.86,50.64,1007.98,2055.63,1008.14,1188.92,1338.49,599.95,604.55,54.71,0000 0000 0000 0000 000000
2016-01-25 09:05:35,0.10,13.77,0.00,16.34,20.58,24.53,14.85,50.77,1008.25,2055.50,1007.85,1188.13,1338.01,599.94,604.69,54.76,0000 0000 0000 0000 000000
2016-01-25 09:10:37,0.13,13.78,0.00,16.30,20.59,24.54,14.87,50.69,1008.31,2055.22,1006.96,1187.84,1337.31,600.26,605.23,54.81,0000 0000 0000 0000 000000
2016-01-25 09:15:38,0.25,13.79,0.00,16.25,20.59,24.52,14.82,50.75,1008.31,2055.10,1005.91,1187.05,1336.69,599.89,604.93,54.86,0000 0000 0000 0000 000000
2016-01-25 09:20:39,0.23,13.80,0.00,16.28,20.59,24.50,14.80,50.68,1008.32,2055.14,1004.93,1186.49,1336.00,600.17,605.09,54.91,0000 0000 0000 0000 000000
2016-01-25 09:25:41,0.18,13.81,0.00,16.29,20.58,24.50,14.87,50.73,1008.44,2055.09,1004.06,1186.00,1335.21,599.99,604.94,54.96,0000 0000 0000 0000 000000
2016-01-25 09:30:42,0.23,13.82,0.00,16.28,20.57,24.48,14.94,50.81,1008.64,2055.06,1003.24,1185.34,1334.73,600.19,605.23,55.02,0000 0000 0000 0000 000000
2016-01-25 09:35:43,0.12,13.83,0.00,16.28,20.57,24.47,14.84,50.66,1008.79,2055.07,1002.65,1184.99,1334.03,600.02,605.10,55.07,0000 0000 0000 0000 000000
2016-01-25 09:40:45,0.18,13.84,0.00,16.24,20.57,24.48,14.95,50.75,1008.80,2055.08,1001.99,1184.38,1333.57,600.34,605.67,55.12,0000 0000 0000 0000 000000
2016-01-25 09:45:46,0.16,13.85,0.00,16.22,20.56,24.45,14.91,50.72,1008.84,2055.13,1001.19,1184.00,1333.01,600.06,605.34,55.17,0000 0000 0000 0000 000000
2016-01-25 09:50:47,0.23,13.85,0.00,16.21,20.54,24.47,14.84,50.62,1008.91,2055.11,1000.51,1183.45,1332.35,599.91,605.30,55.22,0000 0000 0000 0000 000000
2016-01-25 09:55:49,0.06,13.86,0.00,16.23,20.54,24.45,14.89,50.52,1009.01,2055.17,999.95,1183.01,1332.00,600.09,605.46,55.27,0000 0000 0000 0000 000000
2016-01-25 10:00:51,0.23,13.87,0.00,16.18,20.52,24.46,14.88,50.56,1009.28,2055.16,999.13,1182.65,1331.32,600.14,605.82,55.32,0000 0000 0000 0000 000000
2016-01-25 10:05:52,0.17,13.88,0.00,16.17,20.51,24.42,14.87,50.54,1009.38,2055.34,998.49,1182.04,1330.98,599.92,605.71,55.37,0000 0000 0000 0000 000000
2016-01-25 10:10:54,0.17,13.89,0.00,16.15,20.49,24.37,14.98,50.61,1009.68,2055.43,997.84,1181.85,1330.25,600.18,606.19,55.42,0000 0000 0000 0000 000000
2016-01-25 10:15:55,0.21,13.90,0.00,16.15,20.48,24.37,14.85,50.67,1009.77,2055.59,996.93,1181.09,1329.90,600.14,606.18,55.47,0000 0000 0000 0000 000000
2016-01-25 10:20:56,0.36,13.91,0.00,16.14,20.47,24.34,14.88,50.61,1009.78,2055.82,995.72,1180.68,1329.07,599.94,605.99,55.52,0000 0000 0000 0000 000000
2016-01-25 10:25:57,0.26,13.93,0.00,16.15,20.44,24.30,14.81,50.53,1009.92,2055.84,994.38,1180.01,1328.37,599.77,605.81,55.57,0000 0000 0000 0000 000000
2016-01-25 10:30:59,0.24,13.94,0.00,16.15,20.43,24.30,15.00,50.59,1010.07,2055.88,993.10,1179.31,1327.89,600.40,606.65,55.62,0000 0000 0000 0000 000000
2016-01-25 10:36:00,0.20,13.96,0.00,16.16,20.42,24.29,14.85,50.47,1010.19,2055.96,992.13,1179.00,1327.12,600.12,606.37,55.67,0000 0000 0000 0000 000000
2016-01-25 10:41:01,0.05,13.96,0.00,16.14,20.39,24.28,14.91,50.58,1010.27,2055.95,991.77,1178.96,1326.99,600.24,606.56,55.72,0000 0000 0000 0000 000000
2016-01-25 10:46:03,0.18,13.97,0.00,16.09,20.38,24.24,14.88,50.50,1010.30,2055.97,991.06,1178.49,1326.68,600.07,606.52,55.77,0000 0000 0000 0000 000000
2016-01-25 10:51:04,0.14,13.97,0.00,16.08,20.36,24.28,14.85,50.43,1010.60,2055.98,990.64,1178.03,1326.05,600.23,606.94,55.82,0000 0000 0000 0000 000000
2016-01-25 10:56:05,0.04,13.98,0.00,16.09,20.34,24.25,14.87,50.40,1010.76,2055.98,990.03,1178.00,1326.00,600.02,606.68,55.87,0000 0000 0000 0000 000000
2016-01-25 11:01:07,0.07,13.98,0.00,16.09,20.32,24.23,14.86,50.43,1010.76,2055.99,989.67,1177.98,1325.96,599.82,606.63,55.93,0000 0000 0000 0000 000000
2016-01-25 11:06:08,0.16,13.99,0.00,16.10,20.31,24.21,14.98,50.47,1010.80,2055.99,989.02,1177.62,1325.28,600.45,607.17,55.98,0000 0000 0000 0000 000000
2016-01-25 11:11:09,0.09,13.99,0.00,16.09,20.29,24.23,14.88,50.27,1010.83,2055.99,988.75,1177.06,1325.01,599.84,606.70,56.03,0000 0000 0000 0000 000000
2016-01-25 11:16:11,0.08,14.00,0.00,16.08,20.28,24.18,14.90,50.39,1011.15,2055.99,988.06,1177.00,1324.98,599.78,606.74,56.08,0000 0000 0000 0000 000000
2016-01-25 11:21:12,0.05,14.00,0.00,16.04,20.27,24.17,14.87,50.39,1011.24,2055.99,987.86,1176.99,1324.74,599.88,606.90,56.13,0000 0000 0000 0000 000000
2016-01-25 11:26:13,0.13,14.01,0.00,16.04,20.24,24.17,14.85,50.44,1011.24,2055.99,987.08,1176.96,1324.09,600.11,607.18,56.18,0000 0000 0000 0000 000000
2016-01-25 11:31:15,0.12,14.01,0.00,16.06,20.23,24.15,14.88,50.46,1011.25,2056.00,986.87,1176.31,1324.00,599.94,607.16,56.23,0000 0000 0000 0000 000000
2016-01-25 11:36:16,0.12,14.02,0.00,16.09,20.22,24.13,14.95,50.44,1011.50,2056.02,986.08,1176.02,1323.96,600.14,607.31,56.28,0000 0000 0000 0000 000000
2016-01-25 11:41:17,0.05,14.03,0.00,16.06,20.20,24.12,14.86,50.50,1011.69,2056.02,985.96,1176.00,1323.37,599.79,607.10,56.33,0000 0000 0000 0000 000000
2016-01-25 11:46:19,0.13,14.03,0.00,16.02,20.19,24.11,14.94,50.43,1011.73,2056.03,985.24,1175.97,1323.03,600.23,607.73,56.38,0000 0000 0000 0000 000000
2016-01-25 11:51:20,0.10,14.04,0.00,16.01,20.18,24.09,14.87,50.40,1011.74,2056.02,984.90,1175.41,1322.97,600.03,607.53,56.43,0000 0000 0000 0000 000000
2016-01-25 11:56:21,0.19,14.05,0.00,16.02,20.17,24.11,14.86,50.59,1011.90,2056.07,984.11,1175.02,1322.41,599.64,607.23,56.48,0000 0000 0000 0000 000000
2016-01-25 12:01:23,0.05,14.05,0.00,16.00,20.16,24.08,14.93,50.42,1012.19,2056.07,983.80,1175.00,1322.01,599.92,607.75,56.53,0000 0000 0000 0000 000000
2016-01-25 12:06:24,0.15,14.06,0.00,16.00,20.14,24.07,14.87,50.41,1012.22,2056.16,983.03,1174.74,1321.92,599.93,607.72,56.58,0000 0000 0000 0000 000000
2016-01-25 12:11:25,0.28,14.07,0.00,15.99,20.13,24.07,14.86,50.44,1012.23,2056.55,982.40,1174.11,1321.21,599.85,607.74,56.63,0000 0000 0000 0000 000000
2016-01-25 12:16:27,0.05,14.08,0.00,15.96,20.12,24.06,15.00,50.55,1012.24,2056.69,981.94,1174.00,1321.00,599.80,607.63,56.68,0000 0000 0000 0000 000000
2016-01-25 12:21:28,0.16,14.08,0.00,15.94,20.11,24.03,14.94,50.58,1012.31,2056.78,981.11,1173.97,1320.83,600.08,608.08,56.73,0000 0000 0000 0000 000000
2016-01-25 12:26:29,0.22,14.09,0.00,15.96,20.09,24.00,14.91,50.50,1012.61,2056.92,980.63,1173.45,1320.11,599.93,608.10,56.78,0000 0000 0000 0000 000000
2016-01-25 12:31:30,0.09,14.10,0.00,15.97,20.08,24.02,14.95,50.58,1012.71,2056.96,979.97,1173.03,1319.98,600.17,608.19,56.84,0000 0000 0000 0000 000000
2016-01-25 12:36:32,0.16,14.11,0.00,15.94,20.07,24.01,14.90,50.76,1012.71,2056.95,979.14,1172.98,1319.53,600.04,608.28,56.89,0000 0000 0000 0000 000000
2016-01-25 12:41:33,0.20,14.11,0.00,15.93,20.06,23.98,14.98,50.78,1012.73,2056.97,978.48,1172.50,1319.01,600.34,608.72,56.94,0000 0000 0000 0000 000000
2016-01-25 12:46:34,0.09,14.12,0.00,15.94,20.04,23.99,14.97,50.78,1012.98,2056.98,977.86,1172.02,1318.79,600.43,608.83,56.99,0000 0000 0000 0000 000000
2016-01-25 12:51:35,0.16,14.13,0.00,15.94,20.04,23.96,14.85,50.61,1013.18,2056.98,976.94,1171.98,1318.05,599.96,608.49,57.04,0000 0000 0000 0000 000000